Lynchburg, VA

7:56 PM EST on February 27, 2017 (GMT -0500)
Lynchburg Regional-Glenn

Weather History for KLYH - June, 2013

Change the Weather History Date:

Sunday, June 23, 2013

  Actual Average Record
Temperature  
Mean Temperature 79 °F 74 °F  
Max Temperature 88 °F 85 °F 98 °F (1911)
Min Temperature 69 °F 62 °F 48 °F (1918)
Degree Days  
Heating Degree Days 0 0  
Month to date heating degree days 1 13  
Since 1 June heating degree days 1 13  
Since 1 July heating degree days 4293 4458  
Cooling Degree Days 14 9  
Month to date cooling degree days 172 149  
Year to date cooling degree days 307 231  
Since 1 June cooling degree days 172 149  
Growing Degree Days 28 (Base 50)    
Moisture  
Dew Point 68 °F    
Average Humidity 73    
Maximum Humidity 100    
Minimum Humidity 46    
Precipitation  
Precipitation T in 0.12 in 3.54 in (2016)
Month to date precipitation 5.33 2.84  
Year to date precipitation 25.77 19.53  
Snow  
Snow 0.00 in - - ()
Month to date snowfall 0.0  
Since 1 June snowfall 0.0  
Since 1 July snowfall 13.0  
Snow Depth 0.00 in    
Sea Level Pressure  
Sea Level Pressure 30.17 in    
Wind  
Wind Speed 4 mph (SSW)    
Max Wind Speed 12 mph    
Max Gust Speed 16 mph    
Visibility 10 miles    
Events Rain    
T = Trace of Precipitation, MM = Missing Value Source: NWS Daily Summary

Daily Weather History Graph

Daily Weather History Graph

Search for Another Location

Airport or City:

Trip Planner

Search our weather history database for the weather conditions in past years. The results will help you decide how hot, cold, wet, or windy it might be!

Date:

Astronomy

Jun. 23, 2013 Rise Set
Actual Time 5:57 AM EDT 8:41 PM EDT
Civil Twilight 5:25 AM EDT 9:12 PM EDT
Nautical Twilight 4:47 AM EDT 9:51 PM EDT
Astronomical Twilight 4:03 AM EDT 10:34 PM EDT
Moon 8:53 PM EDT (6/23) 6:11 AM EDT (6/23)
Length of Visible Light 15h 46m
Length of Day
14h 44m
Full, 100% of the Moon is Illuminated
Jun 23
Full
Jun 30
Last Quarter
Jul 8
New
Jul 15
First Quarter
Jul 22
Full

Hourly Weather History & Observations

Time (EDT) Temp. Heat Index Dew Point Humidity Pressure Visibility Wind Dir Wind Speed Gust Speed Precip Events Conditions
12:54 AM 72.0 °F - 68.0 °F 87% 30.19 in 10.0 mi Calm Calm - 0.00 in Rain Light Rain
1:44 AM 69.8 °F - 69.8 °F 100% 30.20 in 10.0 mi Calm Calm - 0.00 in Rain Light Rain
1:54 AM 70.0 °F - 69.1 °F 97% 30.17 in 10.0 mi Calm Calm - 0.00 in   Overcast
2:14 AM 69.8 °F - 69.8 °F 100% 30.18 in 10.0 mi Calm Calm - N/A   Mostly Cloudy
2:54 AM 70.0 °F - 69.1 °F 97% 30.14 in 10.0 mi Calm Calm - N/A   Clear
3:20 AM 69.8 °F - 69.8 °F 100% 30.17 in 10.0 mi Calm Calm - N/A   Mostly Cloudy
3:40 AM 69.8 °F - 69.8 °F 100% 30.17 in 10.0 mi Calm Calm - N/A   Overcast
3:54 AM 70.0 °F - 68.0 °F 93% 30.14 in 10.0 mi Calm Calm - N/A   Overcast
4:35 AM 69.8 °F - 68.0 °F 94% 30.18 in 10.0 mi SSW 3.5 mph - N/A   Overcast
4:44 AM 69.8 °F - 68.0 °F 94% 30.18 in 10.0 mi Calm Calm - N/A   Overcast
4:54 AM 69.1 °F - 68.0 °F 96% 30.15 in 10.0 mi SSW 3.5 mph - N/A   Overcast
5:54 AM 70.0 °F - 68.0 °F 93% 30.17 in 10.0 mi Calm Calm - N/A   Overcast
6:06 AM 69.8 °F - 69.8 °F 100% 30.20 in 10.0 mi Calm Calm - N/A   Overcast
6:14 AM 69.8 °F - 69.8 °F 100% 30.20 in 10.0 mi Calm Calm - N/A   Overcast
6:54 AM 70.0 °F - 69.1 °F 97% 30.18 in 4.0 mi Calm Calm - N/A   Overcast
7:22 AM 71.6 °F - 69.8 °F 94% 30.21 in 10.0 mi Calm Calm - N/A   Overcast
7:54 AM 72.0 °F - 69.1 °F 91% 30.19 in 10.0 mi Calm Calm - N/A   Overcast
8:54 AM 73.9 °F - 69.1 °F 85% 30.21 in 10.0 mi West 4.6 mph - N/A   Mostly Cloudy
9:54 AM 75.0 °F - 69.1 °F 82% 30.21 in 10.0 mi South 4.6 mph - N/A   Mostly Cloudy
10:54 AM 78.1 °F - 69.1 °F 74% 30.20 in 10.0 mi South 4.6 mph - N/A   Scattered Clouds
11:09 AM 78.8 °F - 68.0 °F 69% 30.23 in 10.0 mi Variable 3.5 mph - N/A   Mostly Cloudy
11:49 AM 80.6 °F 83.9 °F 69.8 °F 70% 30.23 in 10.0 mi Variable 3.5 mph - N/A   Mostly Cloudy
11:54 AM 82.9 °F 87.0 °F 70.0 °F 65% 30.20 in 10.0 mi Variable 5.8 mph - N/A   Mostly Cloudy
12:54 PM 82.9 °F 85.8 °F 68.0 °F 60% 30.18 in 10.0 mi SW 5.8 mph - N/A   Scattered Clouds
1:54 PM 86.0 °F 89.4 °F 68.0 °F 55% 30.17 in 10.0 mi SSW 8.1 mph - N/A   Scattered Clouds
2:54 PM 87.1 °F 89.2 °F 66.0 °F 49% 30.15 in 10.0 mi Variable 4.6 mph - N/A   Clear
3:54 PM 87.1 °F 89.2 °F 66.0 °F 49% 30.13 in 10.0 mi South 8.1 mph - N/A   Clear
4:54 PM 87.1 °F 88.9 °F 64.9 °F 48% 30.11 in 10.0 mi SSW 4.6 mph - N/A   Clear
5:54 PM 87.1 °F 89.2 °F 66.0 °F 49% 30.11 in 10.0 mi South 9.2 mph - N/A   Clear
6:54 PM 84.9 °F 87.6 °F 66.9 °F 55% 30.12 in 10.0 mi South 10.4 mph - N/A   Clear
7:54 PM 81.0 °F 83.8 °F 68.0 °F 65% 30.12 in 10.0 mi SSW 5.8 mph - N/A   Clear
8:54 PM 79.0 °F - 70.0 °F 74% 30.12 in 10.0 mi South 9.2 mph - N/A   Clear
9:54 PM 77.0 °F - 69.1 °F 76% 30.16 in 10.0 mi South 8.1 mph - N/A   Clear
10:54 PM 73.0 °F - 66.9 °F 81% 30.17 in 10.0 mi SSW 4.6 mph - N/A   Clear
11:54 PM 72.0 °F - 66.9 °F 84% 30.18 in 10.0 mi Calm Calm - N/A   Clear